Find Starlink 30792

NORAD ID: 58220 Int'l Des: 2023-170 Owner: SPXS Country: US Constellation: starlink operational
LEOCIRCULAR

Current View

Loading 3D Globe...

About Starlink 30792

Starlink 30792 (NORAD 58220) is a starlink constellation satellite (v2 mini) launched Nov 4, 2023 by SPXS of US. It operates in LEO, CIRCULAR orbit with a mass of 730.00 kg.

About Starlink 30792

Description loading...

Upcoming Passes

Passes for default location (London). Set your location on the main map for personalized predictions.

Altitude History

Loading altitude history...

Two-Line Element Set

1 58220U 23170Q 26165.32535800 .00018108 00000-0 11715-2 0 9991
2 58220 42.9993 27.6192 0007634 231.6900 128.3258 15.07868734144853
Epoch: Jun 14, 2026 • Age: 31 hours

Current Status

Altitude 540.6 km
Velocity 7.60 km/s
Sub-Earth Point 12.86°N, 61.68°E
Launch Date Nov 4, 2023
Age 2.6 years
Type internet

Technical Details

Classification Payload
Mass 730.00 kg
Dry Mass 700.00 kg
Total Mass 730.00 kg
Length 0.30 m
Diameter 4.10 m
Span 29.00 m
Shape Box + pan
Manufacturer SPXS
Bus Type Starlink V2M
Phase Status In Orbit
Owner/State SPXS/US

Most Searched